Latest Weather Observations for Lockhart River

IDQ60801

Issued at 11:05 pm EST Thursday 30 October 2014 (issued every 30 minutes, with the page automatically refreshed every 10 minutes)

About weather observations | Map of weather stations | Latest weather observations for QLD | Other Formats
Station Details ID: 028008 Name: LOCKHART RIVER AIRPORT Lat: -12.79 Lon: 143.30 Height: 18.5 m
Data from the previous 72 hours. | See also: Recent months at Lockhart River
Date/Time
EST
Temp
°C
App
Temp
°C
Dew
Point
Rel
Hum
%
Delta-T
°C
Wind Press
QNH
hPa
Press
MSL
hPa
Rain
since 9 am
mm
Dir
 
Spd
km/h
Gust
km/h
Spd
kts
Gust
kts
30/11:00pm 24.8 25.1 18.7 69 3.9 ESE 15 22 8 12 1012.6 - 0.0
30/10:30pm 24.7 25.3 18.6 69 3.9 ESE 13 19 7 10 1012.6 - 0.0
30/10:00pm 24.7 25.2 18.4 68 4.0 ESE 13 20 7 11 1012.4 - 0.0
30/09:30pm 24.5 24.9 18.2 68 4.0 ESE 13 19 7 10 1012.2 - 0.0
30/09:00pm 24.4 25.1 18.8 71 3.6 ESE 13 15 7 8 1012.0 1011.9 0.0
30/08:30pm 24.2 25.3 18.8 72 3.4 ESE 11 15 6 8 1011.7 - 0.0
30/08:00pm 24.5 25.2 18.9 71 3.6 ESE 13 20 7 11 1011.5 - 0.0
30/07:30pm 24.8 25.3 19.2 71 3.6 ESE 15 20 8 11 1011.3 - 0.0
30/07:00pm 25.2 25.4 19.3 70 3.8 ESE 17 24 9 13 1011.0 - 0.0
30/06:30pm 25.3 25.8 19.2 69 3.9 ESE 15 20 8 11 1010.8 - 0.0
30/06:00pm 26.1 26.4 19.7 68 4.1 E 17 26 9 14 1010.6 1010.5 0.0
30/05:30pm 26.2 26.1 18.8 63 4.7 E 17 26 9 14 1010.4 - 0.0
30/05:00pm 27.1 27.1 18.9 61 5.3 E 17 28 9 15 1010.2 - 0.0
30/04:30pm 27.1 26.3 18.1 58 5.7 E 19 33 10 18 1010.0 - 0.0
30/04:00pm 28.1 27.3 18.5 56 6.1 E 20 32 11 17 1010.0 - 0.0
30/03:30pm 28.6 27.3 19.0 56 6.2 E 24 33 13 18 1010.0 - 0.0
30/03:00pm 28.6 27.2 18.7 55 6.4 E 24 33 13 18 1010.2 1010.1 0.0
30/02:30pm 28.5 27.0 18.6 55 6.4 E 24 35 13 19 1010.4 - 0.0
30/02:00pm 28.5 27.5 18.9 56 6.2 E 22 32 12 17 1010.6 - 0.0
30/01:30pm 28.7 28.1 18.5 54 6.5 E 19 30 10 16 1010.8 - 0.0
30/01:00pm 28.3 27.8 18.7 56 6.2 E 19 28 10 15 1011.2 - 0.0
30/12:30pm 29.3 28.9 18.1 51 7.2 E 17 26 9 14 1011.6 - 0.0
30/12:00pm 28.5 27.4 17.7 52 6.8 E 20 30 11 16 1012.2 1012.1 0.0
30/11:30am 28.7 28.1 17.6 51 7.0 E 17 32 9 17 1012.5 - 0.0
30/11:00am 28.5 27.1 18.0 53 6.7 ESE 22 30 12 16 1012.8 - 0.0
30/10:30am 27.9 27.5 18.0 55 6.3 E 17 30 9 16 1012.8 - 0.0
30/10:00am 27.5 26.7 17.9 55 6.1 E 19 28 10 15 1013.2 - 0.0
30/09:30am 27.4 26.8 18.4 58 5.7 E 19 30 10 16 1013.3 - 0.0
30/09:00am 27.2 26.6 18.8 60 5.4 ESE 20 30 11 16 1013.5 1013.4 0.0
30/08:30am 26.9 26.9 18.2 59 5.5 E 15 26 8 14 1013.4 - 0.0
30/08:00am 23.9 27.4 19.6 77 2.8 CALM 0 0 0 0 1013.3 - 0.0
30/07:30am 21.7 25.5 20.2 91 1.0 NW 0 0 0 0 1013.0 - 0.0
30/07:00am 19.1 22.1 18.4 96 0.4 CALM 0 0 0 0 1012.7 - 0.0
30/06:30am 17.5 19.9 16.9 96 0.4 CALM 0 0 0 0 1012.3 - 0.0
30/06:00am 17.5 19.9 16.9 96 0.4 NW 0 0 0 0 1012.0 1011.9 0.0
30/05:30am 17.8 20.2 17.0 95 0.5 CALM 0 0 0 0 1011.7 - 0.0
30/05:00am 18.1 20.7 17.5 96 0.4 CALM 0 0 0 0 1011.7 - 0.0
30/04:30am 18.3 21.0 17.7 96 0.4 CALM 0 0 0 0 1011.4 - 0.0
30/04:00am 17.9 20.3 17.1 95 0.5 CALM 0 0 0 0 1011.4 - 0.0
30/03:30am 18.5 21.2 17.7 95 0.5 CALM 0 0 0 0 1011.3 - 0.0
30/03:00am 18.8 21.6 18.0 95 0.5 CALM 0 0 0 0 1011.4 - 0.0
30/02:30am 19.2 21.8 18.4 95 0.5 NNE 2 15 1 8 1011.5 - 0.0
30/02:00am 19.7 22.8 18.7 94 0.6 CALM 0 9 0 5 1011.9 - 0.0
30/01:30am 20.1 23.4 19.1 94 0.6 CALM 0 0 0 0 1012.1 - 0.0
30/01:00am 20.1 23.4 19.1 94 0.6 CALM 0 0 0 0 1012.5 - 0.0
30/12:30am 20.4 23.7 19.2 93 0.8 CALM 0 0 0 0 1012.7 - 0.0
30/12:00am 20.6 24.0 19.4 93 0.8 NW 0 0 0 0 1012.8 1012.7 0.0
 
Date/Time
EST
Temp
°C
App
Temp
°C
Dew
Point
Rel
Hum
%
Delta-T
°C
Wind Press
QNH
hPa
Press
MSL
hPa
Rain
since 9 am
mm
Dir
 
Spd
km/h
Gust
km/h
Spd
kts
Gust
kts
29/11:30pm 21.3 25.0 19.9 92 0.9 CALM 0 0 0 0 1013.0 - 0.0
29/11:00pm 21.0 24.5 19.6 92 0.9 CALM 0 0 0 0 1013.2 - 0.0
29/10:30pm 21.3 25.0 19.9 92 0.9 CALM 0 0 0 0 1013.3 - 0.0
29/10:00pm 20.8 24.3 19.5 92 0.8 CALM 0 0 0 0 1013.3 - 0.0
29/09:30pm 21.2 24.3 19.5 90 1.1 NNE 2 6 1 3 1013.1 - 0.0
29/09:00pm 21.9 25.4 19.5 86 1.5 CALM 0 0 0 0 1013.1 1013.0 0.0
29/08:30pm 22.8 25.9 19.6 82 2.0 ENE 2 7 1 4 1013.0 - 0.0
29/08:00pm 24.4 26.9 20.3 78 2.7 ESE 7 9 4 5 1012.8 - 0.0
29/07:30pm 24.7 26.4 20.2 76 2.9 SE 11 15 6 8 1012.5 - 0.0
29/07:00pm 24.9 27.1 20.4 76 2.9 ESE 9 11 5 6 1012.3 - 0.0
29/06:30pm 25.0 26.9 19.8 73 3.4 E 9 13 5 7 1011.8 - 0.0
29/06:00pm 25.5 26.7 19.9 71 3.6 E 13 19 7 10 1011.7 1011.6 0.0
29/05:30pm 26.4 27.6 20.0 68 4.2 E 13 20 7 11 1011.5 - 0.0
29/05:00pm 26.5 26.7 20.1 68 4.2 E 19 26 10 14 1011.2 - 0.0
29/04:30pm 27.2 27.2 19.8 64 4.8 ESE 19 26 10 14 1011.1 - 0.0
29/04:00pm 27.5 27.5 19.8 63 5.0 E 19 28 10 15 1011.0 - 0.0
29/03:30pm 27.7 27.8 20.0 63 5.0 E 19 26 10 14 1010.8 - 0.0
29/03:00pm 27.7 27.6 20.0 63 5.0 E 20 28 11 15 1010.9 1010.8 0.0
29/02:30pm 28.4 28.5 19.9 60 5.6 E 19 28 10 15 1011.1 - 0.0
29/02:00pm 27.9 27.9 19.7 61 5.3 E 19 28 10 15 1011.3 - 0.0
29/01:30pm 28.7 29.0 19.6 58 5.9 E 17 28 9 15 1011.5 - 0.0
29/01:00pm 29.2 29.7 20.1 58 6.0 E 17 26 9 14 1011.8 - 0.0
29/12:30pm 28.5 28.1 18.9 56 6.2 ENE 19 22 10 12 1012.2 - 0.0
29/12:00pm 28.4 28.3 19.6 59 5.7 E 19 24 10 13 1012.7 1012.6 0.0
29/11:30am 28.5 29.2 19.7 59 5.7 E 15 20 8 11 1013.1 - 0.0
29/11:00am 28.0 28.0 19.0 58 5.8 ENE 17 24 9 13 1013.4 - 0.0
29/10:30am 28.4 27.9 17.9 53 6.7 E 17 26 9 14 1013.7 - 0.0
29/10:00am 27.7 27.8 19.2 60 5.5 ESE 17 26 9 14 1013.9 - 0.0
29/09:30am 28.0 28.3 19.5 60 5.5 E 17 28 9 15 1014.0 - 0.0
29/09:00am 27.7 28.6 20.0 63 5.0 ESE 15 24 8 13 1014.0 1013.9 0.0
29/08:30am 26.5 28.6 21.0 72 3.6 SE 11 20 6 11 1013.9 - 0.0
29/08:00am 25.1 29.4 21.2 79 2.6 CALM 0 6 0 3 1013.8 - 0.0
29/07:30am 22.0 26.1 20.8 93 0.8 CALM 0 0 0 0 1013.4 - 0.0
29/07:00am 19.9 23.2 19.1 95 0.5 CALM 0 0 0 0 1013.1 - 0.0
29/06:30am 18.2 20.9 17.7 97 0.3 CALM 0 0 0 0 1012.7 - 0.0
29/06:00am 17.7 20.1 16.9 95 0.5 CALM 0 0 0 0 1012.4 1012.3 0.0
29/05:30am 17.9 20.3 17.1 95 0.5 CALM 0 0 0 0 1012.0 - 0.0
29/05:00am 18.1 20.6 17.3 95 0.5 CALM 0 0 0 0 1011.7 - 0.0
29/04:30am 18.2 20.8 17.4 95 0.5 CALM 0 0 0 0 1011.5 - 0.0
29/04:00am 18.8 21.2 18.0 95 0.5 NW 2 6 1 3 1011.4 - 0.0
29/03:30am 18.8 21.5 17.8 94 0.6 CALM 0 4 0 2 1011.3 - 0.0
29/03:00am 19.5 22.5 18.5 94 0.6 CALM 0 0 0 0 1011.5 1011.4 0.0
29/02:30am 19.7 22.8 18.7 94 0.6 CALM 0 0 0 0 1011.7 - 0.0
29/02:00am 19.9 23.1 18.9 94 0.6 CALM 0 0 0 0 1011.7 - 0.0
29/01:57am 19.9 23.1 18.9 94 0.6 CALM 0 0 0 0 1011.7 - 0.0
29/01:34am 20.0 23.3 19.0 94 0.6 CALM 0 0 0 0 1011.7 - 0.0
29/01:30am 19.9 23.1 18.9 94 0.6 CALM 0 0 0 0 1011.7 - 0.0
29/01:00am 19.9 23.1 18.9 94 0.6 CALM 0 0 0 0 1011.9 - 0.0
29/12:30am 19.9 23.1 18.9 94 0.6 CALM 0 0 0 0 1012.1 - 0.0
29/12:00am 19.5 22.4 18.3 93 0.7 CALM 0 0 0 0 1012.3 1012.2 0.0
 
Date/Time
EST
Temp
°C
App
Temp
°C
Dew
Point
Rel
Hum
%
Delta-T
°C
Wind Press
QNH
hPa
Press
MSL
hPa
Rain
since 9 am
mm
Dir
 
Spd
km/h
Gust
km/h
Spd
kts
Gust
kts
28/11:30pm 20.3 23.2 19.1 93 0.8 NNW 2 6 1 3 1012.6 - 0.0
28/11:00pm 20.5 23.9 19.3 93 0.8 CALM 0 0 0 0 1012.9 - 0.0
28/10:30pm 20.4 23.7 19.1 92 0.8 CALM 0 0 0 0 1012.9 - 0.0
28/10:00pm 20.7 24.0 19.2 91 0.9 CALM 0 0 0 0 1012.8 - 0.0
28/09:30pm 20.5 23.8 19.0 91 0.9 CALM 0 0 0 0 1012.8 - 0.0
28/09:00pm 20.9 24.2 19.2 90 1.1 CALM 0 0 0 0 1012.9 1012.8 0.0
28/08:30pm 20.9 24.2 19.0 89 1.2 CALM 0 0 0 0 1012.9 - 0.0
28/08:00pm 21.6 24.9 19.0 85 1.6 CALM 0 0 0 0 1012.7 - 0.0
28/07:30pm 23.0 26.3 19.2 79 2.4 CALM 0 6 0 3 1012.6 - 0.0
28/07:00pm 24.5 26.6 19.3 73 3.3 E 7 11 4 6 1012.6 - 0.0
28/06:30pm 24.9 26.3 19.5 72 3.5 ENE 11 17 6 9 1012.4 - 0.0
28/06:00pm 25.6 25.9 19.7 70 3.8 E 17 22 9 12 1012.2 1012.1 0.0
28/05:30pm 26.4 26.6 19.3 65 4.6 E 17 26 9 14 1011.8 - 0.0
28/05:00pm 26.7 26.6 19.6 65 4.6 E 19 26 10 14 1011.4 - 0.0
28/04:30pm 26.9 26.5 19.3 63 4.9 E 20 30 11 16 1011.3 - 0.0
28/04:00pm 27.4 26.8 18.4 58 5.7 E 19 28 10 15 1011.1 - 0.0
28/03:30pm 27.6 27.0 18.9 59 5.6 E 20 28 11 15 1011.1 - 0.0
28/03:00pm 28.0 26.9 18.7 57 6.0 E 22 32 12 17 1011.1 1011.0 0.0
28/02:30pm 28.8 27.7 19.4 56 6.1 ESE 24 32 13 17 1011.3 - 0.0
28/02:00pm 28.8 28.1 19.4 56 6.1 E 22 33 12 18 1011.4 - 0.0
28/01:30pm 28.1 27.2 19.1 58 5.8 E 22 32 12 17 1011.8 - 0.0
28/01:00pm 28.6 27.8 18.4 54 6.5 E 20 30 11 16 1012.0 - 0.0
28/12:30pm 28.2 27.1 18.6 56 6.2 ESE 22 33 12 18 1012.5 - 0.0
28/12:00pm 28.4 27.9 19.1 57 6.0 E 20 30 11 16 1013.0 1012.9 0.0
28/11:30am 28.1 27.3 18.5 56 6.1 E 20 30 11 16 1013.3 - 0.0
28/11:00am 28.5 28.5 19.7 59 5.7 E 19 30 10 16 1013.5 - 0.0
28/10:30am 27.8 27.4 18.8 58 5.8 E 19 28 10 15 1013.8 - 0.0
28/10:00am 27.2 26.8 18.8 60 5.4 E 19 28 10 15 1013.9 - 0.0
28/09:30am 27.0 26.8 19.4 63 4.9 E 19 26 10 14 1014.1 - 0.0
28/09:00am 26.4 26.8 19.8 67 4.3 E 17 24 9 13 1014.1 1014.0 0.0
28/08:30am 25.6 27.1 19.7 70 3.8 SE 11 17 6 9 1014.0 - 0.0
28/08:00am 24.2 27.8 19.7 76 2.9 CALM 0 0 0 0 1013.7 - 0.0
28/07:30am 23.1 25.7 19.3 79 2.4 S 4 7 2 4 1013.4 - 0.0
28/07:00am 21.8 25.4 19.7 88 1.3 CALM 0 0 0 0 1013.1 - 0.0
28/06:30am 20.3 23.8 19.6 96 0.4 CALM 0 0 0 0 1012.8 - 0.0
28/06:00am 19.2 22.2 18.4 95 0.5 CALM 0 0 0 0 1012.7 1012.6 0.0
28/05:30am 19.3 22.3 18.5 95 0.5 CALM 0 0 0 0 1012.3 - 0.0
28/05:00am 19.1 22.0 18.1 94 0.6 CALM 0 0 0 0 1012.1 - 0.0
28/04:30am 19.5 22.5 18.5 94 0.6 CALM 0 0 0 0 1012.0 - 0.0
28/04:00am 20.0 23.3 19.0 94 0.6 CALM 0 0 0 0 1011.9 - 0.0
28/03:30am 20.0 23.3 19.0 94 0.6 CALM 0 0 0 0 1011.9 - 0.0
28/03:00am 20.1 23.4 19.1 94 0.6 CALM 0 0 0 0 1011.9 1011.8 0.0
28/02:30am 20.3 23.7 19.3 94 0.6 CALM 0 0 0 0 1012.0 - 0.0
28/02:00am 20.3 23.7 19.3 94 0.6 CALM 0 0 0 0 1012.0 - 0.0
28/01:30am 20.0 23.3 19.0 94 0.6 CALM 0 0 0 0 1012.1 - 0.0
28/01:00am 20.2 23.5 19.0 93 0.8 CALM 0 0 0 0 1012.2 - 0.0
28/12:30am 20.6 24.0 19.3 92 0.8 CALM 0 0 0 0 1012.5 - 0.0
28/12:00am 20.8 23.9 19.6 93 0.8 NNW 2 7 1 4 1012.7 1012.6 0.0
 
Date/Time
EST
Temp
°C
App
Temp
°C
Dew
Point
Rel
Hum
%
Delta-T
°C
Wind Press
QNH
hPa
Press
MSL
hPa
Rain
since 9 am
mm
Dir
 
Spd
km/h
Gust
km/h
Spd
kts
Gust
kts
27/11:30pm 20.8 24.3 19.5 92 0.8 CALM 0 0 0 0 1013.2 - 0.0

Other Formats:

Comma delimited format used in spreadsheet applications
http://www.bom.gov.au/fwo/IDQ60801/IDQ60801.94186.axf

JavaScript Object Notation format (JSON) in row-major order
http://www.bom.gov.au/fwo/IDQ60801/IDQ60801.94186.json